www.pogodaiklimat.ru

Погода и климат >> Архив погоды >> Россия >> Якутия >> Сого-Хая


ПОГОДА в Сого-Хае

  • Прогноз погоды в Сого-Хае
  • Монитор погоды в Сого-Хае

АРХИВ ПОГОДЫ в Сого-Хае

Время (UTC), дата Ветер
(напр.,м/с)
 
Видим.   Явления Облачность Т
(С)
Тd
(С)
f
(%)
Тe
(С)
Тes
(С)
Комфортность P
(гПа)
Po
(гПа)
Тmin
(С)
Tmax
(С)
R
(мм)
R24
(мм)
S
(см)
15 10.09 штиль 0 50 км 3/0
[Ac trans]
+3.9 +3.7 99 +3 +3 1011.7 1001.2
18 10.09 штиль 0 50 км 3/0
[Ac trans]
+2.8 +2.8 100 +1 +1 1011.4 1000.8
21 10.09 штиль 0 50 км 6/0
[Ac trans]
+4.6 +4.6 100 +3 +3 1010.1 999.6
00 11.09 ЮВ 1 50 км 8/0
[Ac trans]
+7.4 +5.6 88 +6 +8 1009.4 999.6 +2.4
03 11.09 ЮВ 2 50 км 8/0
[Ac trans]
+11.2 +4.8 65 +10 +13 1008.4 998.2
06 11.09 ЮВ 2 50 км 8/0
[Ac trans Ci fib]
+13.1 +5.7 61 +13 +15 1007.4 997.3
09 11.09 ЮВ 2 50 км 8/0
[Ac trans Ci fib]
+12.6 +6.1 65 +12 +12 1006.9 996.7
12 11.09 ЮВ 1 50 км 9/0
[Ac trans]
+12.0 +6.1 67 +12 +12 1006.6 996.4 +14.4
15 11.09 штиль 0 50 км 8/0
[Ac trans Ci fib]
+9.2 +6.6 84 +8 +8 1006.6 996.4
18 11.09 штиль 0 50 км 6/0
[Ac trans Ci fib]
+7.0 +6.1 94 +6 +6 1006.7 996.4
21 11.09 50 км 3/0
[Ac trans Ci fib]
+6.6 +5.7 94 1006.8 976.4
00 12.09 ЮВ 1 50 км 4/0
[Ac trans]
+11.5 +7.4 76 +11 +13 1006.2 996.0 +6.3
03 12.09 ЮВ 2 50 км ясно +15.8 +6.4 54 +16 +21 1005.5 995.5
06 12.09 ЮВ 2 50 км 4/0
[Ac trans]
+18.1 +6.2 46 +19 +21 1003.6 993.7
09 12.09 ЮВ 1 50 км 10/0
[As trans]
+15.5 +5.2 50 +16 +16 1001.5 991.5
12 12.09 штиль 0 50 км 10/6 600 м
[Sc As trans]
+11.2 +6.6 73 +11 +11 999.8 989.7 +18.7
15 12.09 штиль 0 50 км ?/? +12.6 +8.6 77 +12 +12 997.4 987.3
18 12.09 ЮВ 1 10 км слаб. дождь 10/6 600 м
[Sc As op]
+10.8 +9.8 94 +10 +10 994.4 984.3
21 12.09 Ю 2 10 км слаб. дождь 10/6 600 м
[Sc As op]
+9.2 +9.2 100 +7 +7 991.7 981.6
00 13.09 ЮВ 2 10 км слаб. дождь 10/6 600 м
[Sc As op]
+9.6 +9.6 100 +8 +8 989.3 979.2 +8.7 16
03 13.09 ЮВ 1 10 км слаб. дождь 10/0
[As op]
+10.0 +10.0 100 +9 +10 988.6 978.5
06 13.09 СЗ 1 10 км слаб. дождь 10/0
[As op]
+10.2 +10.2 100 +10 +10 989.4 979.3
09 13.09 СЗ 6-10
{12}
50 км {дождь} 10/8 600 м
[Sc As trans]
+5.9 +4.5 91 +1 +1 993.5 983.2
12 13.09 СЗ 6-10
{13}
50 км {дождь} 10/8 600 м
[Sc As trans]
+4.2 +4.4 100 -2 -2 997.2 986.9 +10.5 8
15 13.09 СЗ 4
{10}
50 км 10/8 600 м
[Sc As trans]
+4.1 +3.9 99 -1 -1 999.3 988.9
18 13.09 СЗ 3 50 км 10/4 600 м
[Sc As trans]
+3.6 +3.6 100 -1 -1 1000.6 990.2
21 13.09 СЗ 2 50 км 3/0
[Ci fib]
-0.3 -1.8 90 -4 -4 1002.1 991.6
00 14.09 штиль 0 50 км ясно +2.7 -2.4 69 +2 +4 1003.8 993.3 -0.9
03 14.09 штиль 0 50 км 3/3 600 м
[Cu med, cong]
+6.4 -0.7 60 +6 +10 1003.8 993.4
06 14.09 СЗ 1 50 км ясно +8.5 -0.4 54 +8 +12 1003.1 992.8
09 14.09 СЗ 1 50 км 3/0
[Ac trans]
+7.8 -0.4 56 +7 +8 1002.4 992.1
12 14.09 СЗ 1 50 км 6/0
[Ac trans]
+3.6 -2.4 65 +3 +3 1003.6 993.1 +8.9
15 14.09 СЗ 1 50 км 8/0
[Ac trans]
+3.1 -2.0 69 +2 +2 1003.8 993.3
18 14.09 СЗ 1 50 км 3/0
[Ac trans]
-0.7 -3.5 81 -3 -3 1004.5 993.8
21 14.09 СЗ 1 50 км 3/0
[Ci fib]
-1.1 -3.3 85 -3 -3 1004.6 993.9
00 15.09 ЮВ 2 50 км 8/0
[Ac trans Ci fib]
+4.3 +0.4 76 +2 +3 1004.4 993.9 -1.8
03 15.09 ЮВ 2 50 км 10/0
[Ac trans Cs]
+8.9 +2.2 63 +7 +10 1003.4 993.1
06 15.09 ЮВ 4 50 км 9/0
[Ac trans Cs]
+10.4 +3.3 61 +8 +9 1001.0 990.8
09 15.09 ЮВ 4 50 км 9/9 600 м
[Cb cap]
+10.2 +4.4 67 +8 +8 1001.9 991.7
12 15.09 СЗ 1 50 км 9/9
[Cb cap]
+5.7 +1.7 75 +5 +5 1006.1 994.7
15 15.09 СЗ 1 50 км 9/9 600 м
[Cb cap]
+2.9 -0.1 81 +1 +1 1006.0 995.5
21 15.09 штиль 0 50 км 9/6 600 м
[Cb cap Ac trans]
+1.7 +1.2 96 0 0 1006.6 996.1
00 16.09 СЗ 1 50 км 10/8 600 м
[Sc Ac trans]
+2.3 +1.5 94 +1 +1 1007.8 997.3 +1.2
03 16.09 СЗ 1 50 км 8/8 600 м
[Cu med, cong]
+4.7 +1.9 82 +3 +4 1008.0 997.5
06 16.09 СЗ 2 50 км 6/6 600 м
[Cu med, cong]
+7.6 +1.2 64 +6 +7 1007.9 997.5
09 16.09 СЗ 1 50 км 8/0
[Ac trans Cs]
+6.1 +0.5 67 +5 +5 1008.8 998.4
12 16.09 СЗ 1 50 км 8/0
[Ac trans Cs]
+3.7 -0.1 76 +2 +2 1009.5 999.0 +7.7
15 16.09 СЗ 2 50 км 8/0
[Ac trans Cs]
+3.3 -0.2 78 0 0 1009.0 998.4
18 16.09 СЗ 2 50 км 10/0
[As trans]
+2.9 -0.1 81 -0 -0 1007.9 997.3
21 16.09 СЗ 2 50 км 10/0
[As op]
+2.2 -0.3 84 -1 -1 1007.6 997.1
00 17.09 СЗ 2 50 км 10/0
[As trans]
+2.4 -0.6 81 -1 -0 1007.9 997.4 +1.7
03 17.09 СЗ 3 50 км 9/6 600 м
[Sc Ac trans]
+5.1 +0.4 72 +2 +3 1008.3 997.8
06 17.09 СЗ 3 50 км 9/5 600 м
[Sc Ac trans]
+6.6 +0.2 64 +4 +4 1008.9 998.5

 

Местоположение метеостанции Сого-Хая (Якутия, Россия): широта 64.28 долгота 126.40 высота над уровнем моря 85 м.

В архиве по умолчанию представлена погода в Сого-Хае за последнюю неделю. Архивные данные за месяц целиком и за предыдущие месяцы, начиная с января 2011 года, Вы можете получить, выбрав интересующий диапазон дат из раскрывающегося списка и нажав кнопку "Ввод!".


*Определитесь, кто Вы:
робот инопланетянин человек

Внимание! Время в таблицах - всемирное. Для получения местного времени необходимо прибавить поправку, которая равна 9 ч.

Смотрите также архив погоды в соседних городах и на ближайших метеорологических станциях:

Погода в Сангаре (Якутия, Россия) (61 км)
Погода в Хатырык-Хомо (Якутия, Россия) (86 км)
Погода в Бестяхской Звероферме (Якутия, Россия) (157 км)
Погода в Батамае (Якутия, Россия) (169 км)
Погода в Сеген-Кюеле (Якутия, Россия) (192 км)
Погода в Себян-Кюеле (Якутия, Россия) (205 км)
Погода в Бердигестяхе (Якутия, Россия) (226 км)
Погода в Намцах (Якутия, Россия) (235 км)
Погода в Вилюйске (Якутия, Россия) (241 км)
Погода в Тонгулахе (Якутия, Россия) (279 км)

Пояснения к столбцам:

Ветер - указаны скорость ветра в м/с - средняя за 10 мин, порывы в срок и между сроками (в фигурных скобках) и направление, откуда дует ветер: С - северный, СВ - северо-восточный, В - восточный, ЮВ - юго-восточный, Ю - южный, ЮЗ - юго-западный, З - западный, СЗ - северо-западный.
Видимость - горизонтальная дальность видимости в метрах или километрах. При видимости от 1 до 10 км при отсутствии осадков обычно наблюдается дымка, при ухудшении видимости до 1 км и менее - туман. В сухую погоду видимость может ухудшаться дымом, пылью или мглою.
Явления - указаны атмосферные явления, наблюдавшиеся в срок или в последний час перед сроком; фигурными скобками обозначены явления, наблюдавшиеся между сроками (за 1-3 часа до срока); квадратными скобками обозначены град или гололедные отложения с указанием их диаметра в мм.
Облачность - указаны через наклонную черту общая и нижняя облачность в баллах и высота нижней границы облаков в метрах; квадратными скобками обозначены формы облаков: Ci - перистые, Cs - перисто-слоистые, Cc - перисто-кучевые, Ac - высококучевые, As - высокослоистые, Sc - слоисто-кучевые, Ns - слоисто-дождевые, Cu - кучевые, Cb - кучево-дождевые. Подробнее классификацию облаков см. в Атласе облаков (PDF).
T - Температура воздуха - температура, измеренная на высоте 2 м над землей.
Td - Температура точки росы - температура, при понижении до которой содержащийся в воздухе водяной пар достигнет насыщения.
f - Относительная влажность воздуха - влажноcть воздуха, измеренная на высоте 2 м над землей.
Te - Эффективная температура - температура, которую ощущает одетый по сезону человек в тени. Характеристика душности погоды. При расчете учитывается влияние влажности воздуха и скорости ветра на теплоощущения человека.
Tes - Эффективная температура на солнце - температура, которую ощущает человек, с поправкой на солнечный нагрев. Характеристика знойности погоды. Зависит от высоты солнца над горизонтом, облачности и скорости ветра. Ночью, в пасмурную погоду, а также при ветре 12 м/с и более поправка равна нулю.
P - Атмосферное давление - приведенное к уровню моря атмосферное давление.
Po - Атмосферное давление - измеренное на уровне метеостанции атмосферное давление.
Tmin - Минимальная температура - минимум температуры воздуха на высоте 2 м над землей.
Tmax - Максимальная температура - максимум температуры воздуха на высоте 2 м над землей.
R - Количество осадков - Количество выпавших осадков за период времени, мм. При наведении курсора мыши на число - период времени, за который выпало указанное количество осадков.
R24 - Количество осадков - Количество выпавших осадков за 24 часа, мм.
S - Снежный покров - Высота снежного покрова, см. При наведении курсора мыши на число - состояние снежного покрова и степень покрытия местности в баллах.